DMSP 5D-2 F13 DEB, 40448

Orbit data source: Space-Track

DMSP 5D-2 F13 DEB, 40448 is space debris in SSO originally from a launch on Fri, 24 Mar 1995 UTC launched from the Air Force Western Test Range (AFWTR). Debris objects in space refer to the collection of defunct objects orbiting the Earth. Examples of debris include non-operational satellites, rocket bodies, and fragments generated from explosions, collisions, or faulty payload assembly.

Loading next visibility...
Identifier
40448, 1995-015BA
Orbit
SSO
Country
Flag of USUS
Related business
Manufacturer
Unknown
Mission
Spacecraft
Bus & Motor
Unknown
Mass
Unknown
Launch date (UTC)
1995-03-24 (31 years ago)
Launch vehicle
Unknown
Launch site
Air Force Western Test Range (AFWTR)
Object type
Payload
Rocket body
Debris
Shape & HBR
Unknown shape, 0.1 m
Radar Cross Section
Small (<0.1 m²)

Expand to show TLE details & history
Last TLE update: 13 hours ago

TLE from 13 hours ago
0 DMSP 5D-2 F13 DEB
1 40448U 95015BA  26037.22977949  .00006002  00000-0  25439-2 0  9990
2 40448  98.9750  40.8745 0038167  65.0106 295.5029 14.25382220562869
Epoch: 2026-02-06T05:30Z
TLE epoch observation values (Epoch: 2026-02-06T05:30:52.947Z)
Latitude
-0.00008°
Longitude
-178.21675°
Altitude
798.397 km
Speed
7.46 km/s
True Right ascension
02h 43m 29s
True Declination
0° 00' 00"
Sunlit
Object was in daylight at epoch
Visualization orbit readout
Latitude
Unknown
Longitude
Unknown
Altitude
Unknown
Speed
Unknown
Apparent Right ascension
Unknown
Apparent Declination
Unknown
Sunlit
N/A
Visualization observer readout
Local Sidereal Time
20:37:35
Azimuth
Unknown
Elevation
Unknown
Doppler factor
Unknown
Orbital elements
Apogee altitude
831.786 km
Perigee altitude
776.959 km
Semi-major axis
7,182.509 km
Eccentricity
0.00382
Inclination
98.975°
RAAN
40.8745°
Arg. of periapsis
65.0106°
True anomaly
295.10734°
Mean anomaly
295.5029°
Eccentric anomaly
295.3052°
Mean motion
3.56557 °/min
Orbital period
100.97 mins
BSTAR
0.0025439
Loading maneuver chart data...
Computing Atmospheric mass density...

Documentation

Showing up to 5 results
|